BADALONA



Badalona more information Badalona


Meteosat more information blitzortung!


Radar lluvias  rain snow radar


Visita nuestra red de sitios de meteo:

Template documentation
and downloads

And another site



No requiere especial atención con respecto al clima.    No hay Alarmas

Pagina Historial Weather Underground texto

Diario Resumen Febrero 21, 2018 Unidades:  Métrico    impérial   Tanto
« Anterior Dia
Siguiente Dia »
Diario Semana Mensual Anual Personalizada
  Actual: Alto: Baja: Media:
Temperatura: -12.1 °C -17.8 °C -12.9 °C -11.6 °C
Punto de rocío: -17.9 °C -17.8 °C -22.2 °C -15.9 °C
Humedad: 48 % Humidity % 20 % 62 %
Velocidad del Viento: 17.9 km/h 0 km/h 0 km/h 16.6 km/h
Ráfagas de viento: 17.9 km/h 0 km/h - -
Viento:NE - - SSW
Pression baro: 34107.2 hPa 0 hPa 34063.2 hPa -
Précipitaciones: 0 mm      
Historical Graphs
 
 
Datos de tabla para Febrero 21, 2018
Tiempo Temperatura Punto de rocío Pression baro Viento Velocidad del Viento Ráfagas de viento Humedad Las precipitaciones Rate ( Hora )
-17.8 °C -17.8 °C 0 hPa Calm     Humidity % 0 mm
00:04 -12.1 °C -13.2 °C 34178.3 hPa West 10.3 km/h 12.9 km/h 88 % 0 mm
00:09 -12.1 °C -13.2 °C 34178.3 hPa WSW 11.9 km/h 11.9 km/h 88 % 0 mm
00:14 -12.1 °C -13.2 °C 34178.3 hPa NW 7.7 km/h 10.3 km/h 88 % 0 mm
00:19 -12.2 °C -13.2 °C 34164.7 hPa NW 5.1 km/h 7.7 km/h 88 % 0 mm
00:24 -12.2 °C -13.2 °C 34164.7 hPa West 6 km/h 6 km/h 88 % 0 mm
00:29 -12.2 °C -13.2 °C 34164.7 hPa WNW 6 km/h 6 km/h 88 % 0 mm
00:34 -12.2 °C -13.2 °C 34164.7 hPa WNW 2.6 km/h 2.6 km/h 88 % 0 mm
00:39 -12.2 °C -13.2 °C 34154.6 hPa WNW 10.3 km/h 10.3 km/h 88 % 0 mm
00:44 -12.2 °C -13.2 °C 34164.7 hPa WNW 10.3 km/h 12.9 km/h 88 % 0 mm
00:49 -12.3 °C -13.3 °C 34164.7 hPa Calm   5.1 km/h 88 % 0 mm
00:53 -12.2 °C -13.3 °C 34154.6 hPa West 10.3 km/h 18.2 km/h 88 % 0 mm
00:58 -12.3 °C -13.3 °C 34164.7 hPa NW 12.9 km/h 18.2 km/h 88 % 0 mm
01:03 -12.3 °C -13.3 °C 34164.7 hPa WNW 23.8 km/h 23.8 km/h 88 % 0 mm
01:08 -12.3 °C -13.3 °C 34164.7 hPa West 18.2 km/h 18.2 km/h 88 % 0 mm
01:13 -12.3 °C -13.3 °C 34164.7 hPa WNW 7.7 km/h 12.9 km/h 88 % 0 mm
01:18 -12.3 °C -13.3 °C 34154.6 hPa West 5.1 km/h 15.6 km/h 88 % 0 mm
01:23 -12.3 °C -13.3 °C 34154.6 hPa WNW 7.7 km/h 20.8 km/h 88 % 0 mm
01:28 -12.2 °C -13.3 °C 34154.6 hPa WNW 5.1 km/h 15.6 km/h 88 % 0 mm
01:33 -12.2 °C -13.3 °C 34144.4 hPa West 5.1 km/h 12.9 km/h 87 % 0 mm
01:38 -12.2 °C -13.3 °C 34144.4 hPa Calm   15.6 km/h 87 % 0 mm
01:43 -12.2 °C -13.3 °C 34144.4 hPa Calm   7.7 km/h 87 % 0 mm
01:48 -12.2 °C -13.3 °C 34130.9 hPa WSW 5.1 km/h 12.9 km/h 87 % 0 mm
01:53 -12.2 °C -13.3 °C 34130.9 hPa NW 3.1 km/h 3.1 km/h 87 % 0 mm
01:58 -12.2 °C -13.3 °C 34130.9 hPa WNW 5.1 km/h 7.7 km/h 87 % 0 mm
02:03 -12.2 °C -13.4 °C 34130.9 hPa WNW 7.7 km/h 10.3 km/h 87 % 0 mm
02:08 -12.2 °C -13.4 °C 34130.9 hPa WNW 9 km/h 9 km/h 87 % 0 mm
02:13 -12.2 °C -13.4 °C 34130.9 hPa NW 18.2 km/h 18.2 km/h 87 % 0 mm
02:18 -12.2 °C -13.3 °C 34130.9 hPa West 12.9 km/h 18.2 km/h 87 % 0 mm
02:23 -12.1 °C -13.2 °C 34130.9 hPa SW 29.8 km/h 29.8 km/h 87 % 0 mm
02:28 -12 °C -13.2 °C 34130.9 hPa WNW 23.3 km/h 23.3 km/h 87 % 0 mm
02:33 -11.9 °C -13.2 °C 34130.9 hPa WNW 25.9 km/h 38.8 km/h 85 % 0 mm
02:38 -11.8 °C -13.3 °C 34130.9 hPa NW 10.3 km/h 28.5 km/h 84 % 0 mm
02:43 -11.8 °C -13.3 °C 34130.9 hPa NW 20.8 km/h 28.5 km/h 84 % 0 mm
02:48 -11.9 °C -13.4 °C 34130.9 hPa NW 20.8 km/h 28.5 km/h 84 % 0 mm
02:53 -12 °C -13.7 °C 34120.7 hPa West 18.2 km/h 31.1 km/h 81 % 0 mm
02:58 -12 °C -14.1 °C 34120.7 hPa West 23.8 km/h 23.8 km/h 78 % 0 mm
03:03 -12 °C -13.9 °C 34120.7 hPa WNW 15.6 km/h 23.3 km/h 79 % 0 mm
03:08 -12.1 °C -14.1 °C 34120.7 hPa West 29.8 km/h 29.8 km/h 79 % 0 mm
03:13 -12.2 °C -14.1 °C 34120.7 hPa West 12.9 km/h 28.5 km/h 79 % 0 mm
03:18 -12.2 °C -14.3 °C 34120.7 hPa NNW 15.6 km/h 38.8 km/h 77 % 0 mm
03:23 -12.2 °C -14.6 °C 34120.7 hPa West 29.8 km/h 29.8 km/h 75 % 0 mm
03:28 -12.2 °C -14.7 °C 34120.7 hPa NW 12.9 km/h 28.5 km/h 74 % 0 mm
03:33 -12.3 °C -14.7 °C 34107.2 hPa NW 26.9 km/h 26.9 km/h 74 % 0 mm
03:38 -12.3 °C -14.7 °C 34120.7 hPa West 7.7 km/h 28.5 km/h 74 % 0 mm
03:43 -12.3 °C -14.7 °C 34120.7 hPa NW 15.6 km/h 28.5 km/h 75 % 0 mm
03:48 -12.4 °C -14.8 °C 34120.7 hPa West 10.3 km/h 25.9 km/h 75 % 0 mm
03:53 -12.4 °C -14.8 °C 34120.7 hPa West 10.3 km/h 18.2 km/h 75 % 0 mm
03:58 -12.4 °C -14.8 °C 34107.2 hPa West 7.7 km/h 12.9 km/h 75 % 0 mm
04:03 -12.4 °C -14.8 °C 34107.2 hPa NW 12.9 km/h 20.8 km/h 75 % 0 mm
04:08 -12.4 °C -14.9 °C 34107.2 hPa WNW 28.5 km/h 33.6 km/h 74 % 0 mm
04:13 -12.4 °C -14.8 °C 34107.2 hPa West 29.8 km/h 29.8 km/h 74 % 0 mm
04:18 -12.4 °C -14.8 °C 34097 hPa North 33.6 km/h 33.6 km/h 74 % 0 mm
04:23 -12.4 °C -14.8 °C 34097 hPa West 23.3 km/h 33.6 km/h 74 % 0 mm
04:28 -12.4 °C -14.9 °C 34097 hPa West 12.9 km/h 28.5 km/h 74 % 0 mm
04:33 -12.4 °C -14.9 °C 34097 hPa North 29.8 km/h 29.8 km/h 74 % 0 mm
04:38 -12.4 °C -14.9 °C 34086.9 hPa WNW 5.1 km/h 20.8 km/h 73 % 0 mm
04:43 -12.3 °C -14.9 °C 34086.9 hPa West 18.2 km/h 25.9 km/h 72 % 0 mm
04:48 -12.3 °C -14.9 °C 34086.9 hPa West 12.9 km/h 33.6 km/h 72 % 0 mm
04:58 -12.4 °C -15.1 °C 34086.9 hPa WNW 26.9 km/h 26.9 km/h 72 % 0 mm
05:03 -12.4 °C -15.1 °C 34086.9 hPa WNW 20.8 km/h 20.8 km/h 72 % 0 mm
05:08 -12.4 °C -15.1 °C 34086.9 hPa NW 12.9 km/h 18.2 km/h 72 % 0 mm
05:13 -12.4 °C -15.2 °C 34086.9 hPa WSW 23.8 km/h 23.8 km/h 71 % 0 mm
05:18 -12.4 °C -15.2 °C 34073.3 hPa WNW 20.8 km/h 20.8 km/h 71 % 0 mm
05:23 -12.5 °C -15.3 °C 34086.9 hPa WNW 12.9 km/h 18.2 km/h 71 % 0 mm
05:28 -12.6 °C -15.3 °C 34086.9 hPa NW 18.2 km/h 23.3 km/h 71 % 0 mm
05:33 -12.6 °C -15.3 °C 34086.9 hPa NNW 10.3 km/h 23.3 km/h 72 % 0 mm
05:38 -12.7 °C -15.3 °C 34097 hPa NW 15.6 km/h 23.3 km/h 73 % 0 mm
05:43 -12.8 °C -15.3 °C 34097 hPa NW 20.8 km/h 20.8 km/h 74 % 0 mm
05:48 -12.9 °C -15.3 °C 34086.9 hPa NW 5.1 km/h 18.2 km/h 74 % 0 mm
05:53 -12.9 °C -15.2 °C 34086.9 hPa NW 2.6 km/h 12.9 km/h 75 % 0 mm
05:58 -12.9 °C -15.2 °C 34086.9 hPa SW 2.6 km/h   75 % 0 mm
06:03 -12.9 °C -15.2 °C 34086.9 hPa West 2.6 km/h 12.9 km/h 75 % 0 mm
06:08 -12.9 °C -15.2 °C 34086.9 hPa West 6 km/h 6 km/h 75 % 0 mm
06:13 -12.9 °C -15.2 °C 34086.9 hPa Calm   7.7 km/h 75 % 0 mm
06:18 -12.9 °C -15.2 °C 34086.9 hPa West 10.3 km/h 15.6 km/h 75 % 0 mm
06:23 -12.9 °C -15.2 °C 34086.9 hPa WNW 9 km/h 9 km/h 75 % 0 mm
06:28 -12.9 °C -15.2 °C 34086.9 hPa NNW 12.9 km/h 15.6 km/h 75 % 0 mm
06:33 -12.9 °C -15.2 °C 34086.9 hPa West 7.7 km/h 12.9 km/h 76 % 0 mm
06:38 -12.9 °C -15.2 °C 34097 hPa WNW 5.1 km/h 10.3 km/h 76 % 0 mm
06:43 -12.9 °C -15.1 °C 34086.9 hPa NW 9 km/h 9 km/h 76 % 0 mm
06:48 -12.9 °C -15 °C 34086.9 hPa NW 5.1 km/h 15.6 km/h 77 % 0 mm
06:53 -12.9 °C -15 °C 34097 hPa WNW 10.3 km/h 12.9 km/h 77 % 0 mm
06:58 -12.9 °C -15 °C 34086.9 hPa West 15 km/h 15 km/h 77 % 0 mm
07:03 -12.8 °C -14.8 °C 34097 hPa West 9 km/h 9 km/h 78 % 0 mm
07:08 -12.8 °C -14.8 °C 34097 hPa West 5.1 km/h 15.6 km/h 78 % 0 mm
07:13 -12.8 °C -14.8 °C 34097 hPa WNW 7.7 km/h 12.9 km/h 78 % 0 mm
07:18 -12.8 °C -14.7 °C 34097 hPa WSW 5.1 km/h 12.9 km/h 79 % 0 mm
07:23 -12.8 °C -14.7 °C 34097 hPa WNW 2.6 km/h 10.3 km/h 79 % 0 mm
07:28 -12.8 °C -14.6 °C 34097 hPa NW 10.3 km/h 20.8 km/h 80 % 0 mm
07:33 -12.8 °C -14.6 °C 34097 hPa NW 7.7 km/h 12.9 km/h 80 % 0 mm
07:38 -12.7 °C -14.5 °C 34086.9 hPa WNW 11.9 km/h 11.9 km/h 81 % 0 mm
07:43 -12.7 °C -14.4 °C 34086.9 hPa NNW 2.6 km/h 7.7 km/h 81 % 0 mm
07:48 -12.6 °C -14.3 °C 34086.9 hPa West 9 km/h 9 km/h 81 % 0 mm
07:53 -12.6 °C -14.3 °C 34086.9 hPa NW 5.1 km/h 7.7 km/h 81 % 0 mm
07:58 -12.6 °C -14.3 °C 34086.9 hPa Calm   5.1 km/h 81 % 0 mm
08:03 -12.4 °C -14.3 °C 34086.9 hPa Calm   5.1 km/h 80 % 0 mm
08:08 -12.3 °C -14.2 °C 34086.9 hPa Calm     79 % 0 mm
08:13 -12.1 °C -14.2 °C 34086.9 hPa Calm     77 % 0 mm
08:18 -12 °C -14.2 °C 34086.9 hPa West 3.1 km/h 3.1 km/h 76 % 0 mm
08:23 -11.9 °C -14.4 °C 34097 hPa Calm   2.6 km/h 74 % 0 mm
08:28 -11.7 °C -14.2 °C 34086.9 hPa Calm     74 % 0 mm
08:33 -11.5 °C -14.3 °C 34086.9 hPa Calm   7.7 km/h 71 % 0 mm
08:38 -11.6 °C -14.5 °C 34086.9 hPa Calm     70 % 0 mm
08:43 -11.3 °C -14.4 °C 34086.9 hPa Calm   5.1 km/h 69 % 0 mm
08:48 -11.6 °C -14.6 °C 34097 hPa ESE 2.6 km/h 7.7 km/h 69 % 0 mm
08:53 -11.7 °C -14.6 °C 34097 hPa ENE 7.7 km/h 10.3 km/h 70 % 0 mm
08:58 -11.8 °C -14.7 °C 34097 hPa ENE 6 km/h 6 km/h 70 % 0 mm
09:03 -11.8 °C -14.8 °C 34086.9 hPa ESE 2.6 km/h 5.1 km/h 69 % 0 mm
09:08 -11.7 °C -14.8 °C 34097 hPa NE 2.6 km/h 7.7 km/h 69 % 0 mm
09:13 -11.7 °C -14.8 °C 34097 hPa Calm   2.6 km/h 69 % 0 mm
09:18 -11.7 °C -14.8 °C 34097 hPa Calm   2.6 km/h 68 % 0 mm
09:23 -11.6 °C -14.8 °C 34097 hPa West 7.7 km/h 10.3 km/h 68 % 0 mm
09:28 -11.6 °C -14.7 °C 34086.9 hPa Calm     68 % 0 mm
09:33 -11.5 °C -14.8 °C 34097 hPa Calm   5.1 km/h 67 % 0 mm
09:38 -11.5 °C -14.8 °C 34097 hPa Calm   0.3 km/h 67 % 0 mm
09:43 -11.5 °C -14.7 °C 34097 hPa West 2.6 km/h 5.1 km/h 68 % 0 mm
09:48 -11.5 °C -14.6 °C 34097 hPa West 5.1 km/h 5.1 km/h 69 % 0 mm
09:53 -11.5 °C -14.4 °C 34097 hPa Calm   7.7 km/h 70 % 0 mm
09:58 -11.5 °C -14.4 °C 34097 hPa Calm     70 % 0 mm
10:03 -11.6 °C -15.1 °C 34097 hPa NW 5.1 km/h 7.7 km/h 65 % 0 mm
10:08 -11.6 °C -15.6 °C 34097 hPa WNW 17.9 km/h 17.9 km/h 61 % 0 mm
10:13 -11.6 °C -15.8 °C 34097 hPa WSW 11.9 km/h 11.9 km/h 59 % 0 mm
10:18 -11.5 °C -16.1 °C 34097 hPa WNW 3.1 km/h 3.1 km/h 57 % 0 mm
10:23 -11.5 °C -16.2 °C 34097 hPa Calm   10.3 km/h 56 % 0 mm
10:28 -11.5 °C -15.9 °C 34097 hPa WNW 15 km/h 15 km/h 58 % 0 mm
10:33 -11.5 °C -15.6 °C 34097 hPa WSW 11.9 km/h 11.9 km/h 61 % 0 mm
10:38 -11.5 °C -15.3 °C 34097 hPa West 9 km/h 9 km/h 63 % 0 mm
10:43 -11.5 °C -15.3 °C 34097 hPa West 7.7 km/h 18.2 km/h 63 % 0 mm
10:48 -11.5 °C -15.2 °C 34097 hPa Calm   18.2 km/h 63 % 0 mm
10:53 -11.4 °C -15.2 °C 34097 hPa West 9 km/h 9 km/h 63 % 0 mm
10:58 -11.3 °C -15.1 °C 34097 hPa West 2.6 km/h 7.7 km/h 63 % 0 mm
11:03 -11.3 °C -15.1 °C 34097 hPa Calm   2.6 km/h 63 % 0 mm
11:08 -11.3 °C -15.2 °C 34097 hPa WNW 3.1 km/h   62 % 0 mm
11:13 -11.2 °C -15.1 °C 34097 hPa WNW 10.3 km/h 10.3 km/h 62 % 0 mm
11:18 -11.2 °C -14.9 °C 34097 hPa ENE 2.6 km/h 10.3 km/h 63 % 0 mm
11:23 -11.2 °C -14.9 °C 34086.9 hPa SE 17.9 km/h 17.9 km/h 64 % 0 mm
11:28 -11.1 °C -14.7 °C 34097 hPa WNW 15.6 km/h 15.6 km/h 65 % 0 mm
11:33 -11.1 °C -14.6 °C 34086.9 hPa WSW 20.9 km/h 20.9 km/h 65 % 0 mm
11:38 -11 °C -14.6 °C 34086.9 hPa WNW 10.3 km/h 23.3 km/h 65 % 0 mm
11:43 -10.9 °C -14.6 °C 34097 hPa West 15.6 km/h 31.1 km/h 64 % 0 mm
11:48 -10.8 °C -14.5 °C 34086.9 hPa North 7.7 km/h 18.2 km/h 64 % 0 mm
11:53 -10.7 °C -14.4 °C 34086.9 hPa WNW 9 km/h 9 km/h 64 % 0 mm
11:58 -10.5 °C -14.3 °C 34086.9 hPa West 9 km/h 9 km/h 63 % 0 mm
12:03 -10.2 °C -14.3 °C 34086.9 hPa NNE 9 km/h 9 km/h 61 % 0 mm
12:08 -10.1 °C -15.6 °C 34086.9 hPa NW 10.3 km/h 15.6 km/h 51 % 0 mm
12:13 -9.9 °C -16.6 °C 34086.9 hPa West 32.8 km/h 32.8 km/h 44 % 0 mm
12:18 -9.8 °C -18.2 °C 34086.9 hPa West 18.2 km/h 49.2 km/h 35 % 0 mm
12:23 -9.6 °C -18.6 °C 34086.9 hPa WNW 25.9 km/h 38.8 km/h 33 % 0 mm
12:28 -9.6 °C -20.3 °C 34086.9 hPa NNW 20.8 km/h 44.1 km/h 26 % 0 mm
12:33 -9.4 °C -20.5 °C 34086.9 hPa NNW 7.7 km/h 31.1 km/h 25 % 0 mm
12:38 -9.4 °C -20.7 °C 34086.9 hPa NW 41.4 km/h 41.4 km/h 24 % 0 mm
12:43 -9.4 °C -21.4 °C 34086.9 hPa NNW 15.6 km/h 49.2 km/h 22 % 0 mm
12:48 -9.6 °C -21.8 °C 34086.9 hPa WNW 15.6 km/h 41.4 km/h 21 % 0 mm
12:53 -9.6 °C -21.5 °C 34086.9 hPa North 18.2 km/h 31.1 km/h 22 % 0 mm
12:58 -9.6 °C -21.9 °C 34086.9 hPa NW 41.7 km/h 41.7 km/h 21 % 0 mm
13:03 -9.4 °C -21.4 °C 34073.3 hPa NNE 18.2 km/h 38.8 km/h 22 % 0 mm
13:08 -9.5 °C -21.8 °C 34073.3 hPa WNW 50.7 km/h 50.7 km/h 21 % 0 mm
13:13 -9.5 °C -22.2 °C 34073.3 hPa NW 20.8 km/h 23.3 km/h 20 % 0 mm
13:18 -9.4 °C -22.1 °C 34073.3 hPa NNW 41.7 km/h 41.7 km/h 20 % 0 mm
13:23 -9.4 °C -21.1 °C 34073.3 hPa NNE 15.6 km/h 25.9 km/h 23 % 0 mm
13:28 -9.3 °C -21 °C 34073.3 hPa North 28.5 km/h 28.5 km/h 23 % 0 mm
13:33 -9.4 °C -21.4 °C 34073.3 hPa North 18.2 km/h 41.4 km/h 22 % 0 mm
13:38 -9.5 °C -21.1 °C 34063.2 hPa NW 20.8 km/h 25.9 km/h 23 % 0 mm
13:43 -9.5 °C -20.9 °C 34063.2 hPa North 41.7 km/h 41.7 km/h 24 % 0 mm
13:48 -9.5 °C -20.5 °C 34073.3 hPa Calm   28.5 km/h 25 % 0 mm
13:53 -9.4 °C -21.1 °C 34063.2 hPa Calm   23.3 km/h 23 % 0 mm
13:58 -9.5 °C -21.2 °C 34073.3 hPa NW 32.8 km/h 32.8 km/h 23 % 0 mm
14:03 -9.6 °C -21.2 °C 34063.2 hPa NNE 23.3 km/h 23.3 km/h 23 % 0 mm
14:08 -9.6 °C -21.2 °C 34063.2 hPa NNW 26.9 km/h 26.9 km/h 23 % 0 mm
14:13 -9.7 °C -21.6 °C 34073.3 hPa ESE 26.9 km/h 26.9 km/h 22 % 0 mm
14:18 -9.5 °C -20.8 °C 34073.3 hPa NNW 20.8 km/h 20.8 km/h 24 % 0 mm
14:23 -9.5 °C -20.9 °C 34073.3 hPa NNE 26.9 km/h 26.9 km/h 24 % 0 mm
14:28 -9.9 °C -18.2 °C 34073.3 hPa NE 31.1 km/h 36.2 km/h 36 % 0 mm
14:33 -10.4 °C -17.8 °C 34063.2 hPa ENE 36.2 km/h 64.7 km/h 40 % 0 mm
14:38 -10.6 °C -17.8 °C 34073.3 hPa ENE 44.7 km/h 44.7 km/h 41 % 0 mm
14:43 -10.6 °C -17.4 °C 34073.3 hPa ENE 28.5 km/h 46.7 km/h 43 % 0 mm
14:48 -10.5 °C -17.2 °C 34073.3 hPa ENE 10.3 km/h 31.1 km/h 44 % 0 mm
14:53 -10.7 °C -16.6 °C 34073.3 hPa ENE 46.7 km/h 54.4 km/h 48 % 0 mm
14:58 -10.8 °C -16.9 °C 34073.3 hPa ENE 46.7 km/h 51.8 km/h 47 % 0 mm
15:02 -10.9 °C -16.7 °C 34063.2 hPa East 38.8 km/h 59.5 km/h 49 % 0 mm
15:07 -10.9 °C -17.1 °C 34073.3 hPa ENE 57 km/h 69.8 km/h 47 % 0 mm
15:12 -11 °C -16.9 °C 34073.3 hPa NNE 53.6 km/h 53.6 km/h 48 % 0 mm
15:13 -11 °C -16.9 °C 34073.3 hPa NNE 53.6 km/h 53.6 km/h 48 % 0 mm
15:17 -10.9 °C -16.6 °C 34073.3 hPa East 44.7 km/h 44.7 km/h 50 % 0 mm
15:23 -10.9 °C -16.9 °C 34073.3 hPa ENE 23.3 km/h 41.4 km/h 48 % 0 mm
15:27 -10.9 °C -17.2 °C 34073.3 hPa NE 28.5 km/h 46.7 km/h 46 % 0 mm
15:32 -10.9 °C -16.9 °C 34073.3 hPa NE 33.6 km/h 57 km/h 48 % 0 mm
15:33 -10.9 °C -16.9 °C 34073.3 hPa East 56.6 km/h 56.6 km/h 48 % 0 mm
15:38 -10.9 °C -16.9 °C 34073.3 hPa NE 23.3 km/h 41.4 km/h 48 % 0 mm
15:43 -11 °C -16.8 °C 34073.3 hPa NE 38.8 km/h 46.7 km/h 49 % 0 mm
15:48 -11 °C -17.1 °C 34073.3 hPa NE 44.7 km/h 44.7 km/h 47 % 0 mm
15:53 -11.1 °C -17.2 °C 34073.3 hPa ENE 50.7 km/h 50.7 km/h 47 % 0 mm
15:58 -11.1 °C -17.2 °C 34073.3 hPa NNE 62.6 km/h 62.6 km/h 47 % 0 mm
16:03 -11.1 °C -17.3 °C 34063.2 hPa NE 20.8 km/h 54.4 km/h 46 % 0 mm
16:08 -11.1 °C -17.3 °C 34073.3 hPa NE 44.7 km/h 44.7 km/h 46 % 0 mm
16:13 -11.1 °C -17.1 °C 34073.3 hPa ENE 36.2 km/h 44.1 km/h 48 % 0 mm
16:18 -11.2 °C -17.1 °C 34073.3 hPa NNE 51.8 km/h 54.4 km/h 48 % 0 mm
16:23 -11.2 °C -16.9 °C 34073.3 hPa ENE 12.9 km/h 54.4 km/h 49 % 0 mm
16:28 -11.2 °C -17.1 °C 34073.3 hPa NNE 38.8 km/h 51.8 km/h 48 % 0 mm
16:33 -11.2 °C -17.3 °C 34073.3 hPa NE 23.3 km/h 51.8 km/h 47 % 0 mm
16:38 -11.2 °C -17.4 °C 34073.3 hPa NNE 28.5 km/h 51.8 km/h 46 % 0 mm
16:43 -11.3 °C -17.5 °C 34086.9 hPa NE 46.7 km/h 59.5 km/h 46 % 0 mm
16:48 -11.3 °C -17.6 °C 34086.9 hPa NNE 47.6 km/h 47.6 km/h 46 % 0 mm
16:53 -11.3 °C -17.4 °C 34097 hPa NNE 28.5 km/h 44.1 km/h 47 % 0 mm
16:57 -11.3 °C -17.6 °C 34097 hPa East 20.8 km/h 49.2 km/h 46 % 0 mm
17:02 -11.4 °C -17.8 °C 34097 hPa NNE 25.9 km/h 44.1 km/h 45 % 0 mm
17:07 -11.4 °C -17.3 °C 34097 hPa ESE 15.6 km/h 38.8 km/h 48 % 0 mm
17:12 -11.4 °C -17.3 °C 34107.2 hPa North 29.8 km/h 29.8 km/h 48 % 0 mm
17:17 -11.5 °C -17.4 °C 34107.2 hPa NE 25.9 km/h 33.6 km/h 48 % 0 mm
17:22 -11.6 °C -17.3 °C 34097 hPa ENE 44.7 km/h 44.7 km/h 49 % 0 mm
17:27 -11.6 °C -17.5 °C 34097 hPa NE 23.3 km/h 36.2 km/h 48 % 0 mm
17:32 -11.6 °C -17.7 °C 34097 hPa ENE 35.7 km/h 35.7 km/h 47 % 0 mm
17:37 -11.7 °C -17.6 °C 34097 hPa ENE 28.5 km/h 33.6 km/h 48 % 0 mm
17:42 -11.7 °C -17.6 °C 34097 hPa NNW 5.1 km/h 31.1 km/h 48 % 0 mm
17:47 -11.7 °C -17.6 °C 34097 hPa North 12.9 km/h 31.1 km/h 48 % 0 mm
17:52 -11.7 °C -17.8 °C 34097 hPa NNE 12.9 km/h 28.5 km/h 47 % 0 mm
17:57 -11.8 °C -17.9 °C 34097 hPa NE 41.7 km/h 41.7 km/h 46 % 0 mm
18:02 -11.8 °C -17.7 °C 34107.2 hPa ENE 5.1 km/h 28.5 km/h 48 % 0 mm
18:07 -11.8 °C -17.7 °C 34097 hPa NE 29.8 km/h 29.8 km/h 48 % 0 mm
18:12 -11.8 °C -17.9 °C 34097 hPa NNE 5.1 km/h 18.2 km/h 47 % 0 mm
18:17 -11.9 °C -18.1 °C 34107.2 hPa NNE 7.7 km/h 23.3 km/h 46 % 0 mm
18:22 -11.9 °C -18.2 °C 34107.2 hPa NW 15 km/h 15 km/h 46 % 0 mm
18:27 -12 °C -18.2 °C 34107.2 hPa East 7.7 km/h 28.5 km/h 46 % 0 mm
18:32 -12.1 °C -17.9 °C 34107.2 hPa NE 17.9 km/h 17.9 km/h 48 % 0 mm
Badalona-Progres Meteo
Elogios de Weather Underground - 3.5 mb

Guión original por  Jim McMurry - jmcmurry@mwt.net Adaptado para la plantilla por  Wim van der Kuil - Leuven-Template.eu

Usted encontrará nuestra información del tiempo también en:

UK Metoffice

European Weather Network

WeatherCloud

Weather Underground

Iberian Peninsula Weather Network

AWEKAS

Citizen Weather Observer Program (CWOP)

HAMweather, WeatherForYou, PWS Weather

Equipo utilizado:

Weather-station
Davis Vantage Vue

Weather-program
Weather Display

Weather-server
My Computer

Proveedor
My provider

Davis Vantage Vue

Weather Display

My Computer

My provider